Tulsa Jones, OK

12:35 AM CDT on April 25, 2017 (GMT -0500)
Jones Jr.

Weather History for KRVS - November, 2012

Change the Weather History Date:

Tuesday, November 20, 2012

  Actual Average (KTUL) Record (KTUL)
Temperature  
Mean Temperature 58 °F -  
Max Temperature 75 °F 58 °F 81 °F (1989)
Min Temperature 41 °F 37 °F 16 °F (1937)
Degree Days  
Heating Degree Days 7    
Growing Degree Days 8 (Base 50)    
Moisture  
Dew Point 41 °F    
Average Humidity 76    
Maximum Humidity 93    
Minimum Humidity 27    
Precipitation  
Precipitation 0.00 in - - ()
Sea Level Pressure  
Sea Level Pressure 30.20 in    
Wind  
Wind Speed 1 mph (NNE)    
Max Wind Speed 8 mph    
Max Gust Speed -    
Visibility 6 miles    
Events      
Averages and records for this station are not official NWS values.
T = Trace of Precipitation, MM = Missing Value Source: NWS Daily Summary

Daily Weather History Graph

Daily Weather History Graph

Search for Another Location

Airport or City:

Trip Planner

Search our weather history database for the weather conditions in past years. The results will help you decide how hot, cold, wet, or windy it might be!

Date:

Astronomy

Nov. 20, 2012 Rise Set
Actual Time 7:06 AM CST 5:13 PM CST
Civil Twilight 6:38 AM CST 5:40 PM CST
Nautical Twilight 6:07 AM CST 6:11 PM CST
Astronomical Twilight 5:36 AM CST 6:42 PM CST
Moon 12:47 PM CST (11/20) No Moon Set
Length of Visible Light 11h 02m
Length of Day
10h 07m
First Quarter, 51% of the Moon is Illuminated
Nov 20
First Quarter
Nov 28
Full
Dec 6
Last Quarter
Dec 13
New
Dec 19
First Quarter

Hourly Weather History & Observations

Time (CST) Temp. Dew Point Humidity Pressure Visibility Wind Dir Wind Speed Gust Speed Precip Events Conditions
12:53 AM 46.9 °F 44.1 °F 90% 30.17 in 8.0 mi Calm Calm - N/A   Clear
1:53 AM 46.9 °F 44.1 °F 90% 30.18 in 7.0 mi Calm Calm - N/A   Clear
2:53 AM 46.0 °F 43.0 °F 89% 30.19 in 7.0 mi Calm Calm - N/A   Clear
3:41 AM 44.6 °F 42.8 °F 93% 30.17 in 2.5 mi Calm Calm - N/A   Clear
3:49 AM 44.6 °F 42.8 °F 93% 30.17 in 6.0 mi Calm Calm - N/A   Clear
3:53 AM 43.0 °F 41.0 °F 93% 30.19 in 7.0 mi Calm Calm - N/A   Clear
4:53 AM 42.1 °F 39.9 °F 92% 30.20 in 3.0 mi Calm Calm - N/A   Clear
5:24 AM 42.8 °F 39.2 °F 87% 30.17 in 2.5 mi Calm Calm - N/A   Clear
5:43 AM 42.8 °F 39.2 °F 87% 30.18 in 3.0 mi Calm Calm - N/A   Clear
5:53 AM 42.1 °F 39.9 °F 92% 30.19 in 3.0 mi Calm Calm - N/A   Clear
6:04 AM 42.8 °F 41.0 °F 93% 30.18 in 2.5 mi Calm Calm - N/A   Clear
6:16 AM 42.8 °F 41.0 °F 93% 30.18 in 1.8 mi Calm Calm - N/A   Clear
6:40 AM 41.0 °F 39.2 °F 93% 30.18 in 2.0 mi Calm Calm - N/A   Clear
6:50 AM 41.0 °F 39.2 °F 93% 30.18 in 3.0 mi Calm Calm - N/A   Clear
6:53 AM 41.0 °F 39.0 °F 93% 30.20 in 3.0 mi Calm Calm - N/A   Clear
6:59 AM 41.0 °F 39.2 °F 93% 30.19 in 1.8 mi Calm Calm - N/A   Clear
7:41 AM 42.8 °F 39.2 °F 87% 30.20 in 2.0 mi Calm Calm - N/A   Clear
7:53 AM 43.0 °F 41.0 °F 93% 30.22 in 3.0 mi Calm Calm - N/A   Clear
8:53 AM 51.1 °F 45.0 °F 80% 30.24 in 8.0 mi Calm Calm - N/A   Clear
10:53 AM 66.9 °F 52.0 °F 59% 30.25 in 9.0 mi NE 8.1 mph - N/A   Clear
11:53 AM 71.1 °F 50.0 °F 47% 30.23 in 10.0 mi Variable 5.8 mph - N/A   Clear
12:53 PM 72.0 °F 45.0 °F 38% 30.21 in 10.0 mi NNW 3.5 mph - N/A   Clear
1:53 PM 73.9 °F 43.0 °F 33% 30.19 in 10.0 mi NE 5.8 mph - N/A   Clear
2:53 PM 75.0 °F 39.0 °F 27% 30.18 in 10.0 mi NNE 6.9 mph - N/A   Clear
3:53 PM 73.9 °F 39.9 °F 29% 30.19 in 10.0 mi NNE 5.8 mph - N/A   Clear
4:53 PM 69.1 °F 39.9 °F 35% 30.19 in 10.0 mi NNE 4.6 mph - N/A   Clear
5:53 PM 57.9 °F 41.0 °F 53% 30.19 in 10.0 mi Calm Calm - N/A   Clear
6:53 PM 52.0 °F 42.1 °F 69% 30.21 in 10.0 mi Calm Calm - N/A   Clear
7:53 PM 50.0 °F 39.9 °F 68% 30.22 in 10.0 mi Calm Calm - N/A   Clear
8:53 PM 48.9 °F 39.9 °F 71% 30.22 in 10.0 mi Calm Calm - N/A   Clear
9:53 PM 46.0 °F 39.9 °F 79% 30.23 in 10.0 mi Calm Calm - N/A   Clear
10:53 PM 43.0 °F 37.9 °F 82% 30.24 in 10.0 mi Calm Calm - N/A   Clear
11:53 PM 41.0 °F 37.9 °F 89% 30.26 in 10.0 mi Calm Calm - N/A   Clear